Regional Weather Roundup
Issued by NWS

Home | Current Version | Previous Version | Text Only | Print | Product List | Glossary Off
Versions: 1 2 3 4 5 6 7 8 9 10 11 12 13 14 15 16 17 18 19 20 21 22 23 24 25 26 27 28 29 30 31 32 33 34 35 36 37 38 39 40 41 42 43 44 45 46 47 48 49 50

894
ASUS43 KMKX 260700
RWRWI

WISCONSIN REGIONAL WEATHER ROUNDUP
NATIONAL WEATHER SERVICE MILWAUKEE/SULLIVAN WI
200 AM CDT FRI MAY 26 2017

NOTE: "FAIR" INDICATES FEW OR NO CLOUDS BELOW 12,000 FEET WITH NO
SIGNIFICANT WEATHER AND/OR OBSTRUCTIONS TO VISIBILITY.

WIZ001-002-006>008-014>016-023>028-260800-
NORTHWEST WISCONSIN

CITY           SKY/WX    TMP DP  RH WIND       PRES   REMARKS
SUPERIOR ARPT  NOT AVBL
ASHLAND        MOCLDY    48  46  93 CALM      29.74R
HAYWARD        CLOUDY    56  51  84 CALM      29.75R
SIREN          RAIN      58  56  94 CALM      29.73S
CUMBERLAND     CLOUDY    55  52  88 SE3       29.74F
RICE LAKE      CLOUDY    58  56  93 CALM      29.76S
CHETEK         CLOUDY    57  56  97 CALM      29.75S
LADYSMITH      CLOUDY    60  53  78 S3        29.77R
EAU CLAIRE     NOT AVBL
MENOMONIE      CLOUDY    60  54  80 SE3       29.74S
NEW RICHMOND   CLOUDY    59  53  79 SE5       29.72F
OSCEOLA        CLOUDY    61  54  76 S6        29.74F
$$

WIZ003>005-009-010-017-018-260800-
NORTH CENTRAL WISCONSIN

CITY           SKY/WX    TMP DP  RH WIND       PRES   REMARKS
MANITOWISH WTR CLOUDY    57  49  74 SE7       29.77S
ARBOR VITAE    CLOUDY    57  49  75 SE6       29.78R
WOODRUFF       CLOUDY    57  49  75 SE6       29.78R
RHINELANDER    CLOUDY    57  51  80 SE8       29.80R
EAGLE RIVER    CLEAR     53  46  78 SE3       29.79S
LAND O LAKES   PTCLDY    51  46  83 S3        29.81S
PHILLIPS       CLOUDY    54  52  94 CALM      29.75R
TOMAHAWK       CLOUDY    57  50  78 CALM      29.79R
MEDFORD        MOCLDY    55  51  87 SE5       29.77R
MERRILL        CLOUDY    59  52  77 SE8       29.79R
$$

WIZ029-030-035-036-043>047-260800-
CENTRAL WISCONSIN

CITY           SKY/WX    TMP DP  RH WIND       PRES   REMARKS
WAUSAU         CLOUDY    58  51  78 SE6       29.78R
MOSINEE        CLOUDY    55  52  88 E3        29.80R
MARSHFIELD     CLOUDY    56  51  84 SW6       29.77R
STEVENS POINT  CLOUDY    55  50  84 CALM      29.80R
WAUPACA        MOCLDY    58  53  83 E3        29.79R
WAUTOMA        CLOUDY    52  51  97 CALM      29.80R
WISC RAPIDS    MOCLDY    52  50  93 SE3       29.80R
CAMP DOUGLAS   LGT RAIN  55  55 100 CALM      29.79R
$$

WIZ011>013-019>022-031-037>040-048>050-260800-
NORTHEAST WISCONSIN

CITY           SKY/WX    TMP DP  RH WIND       PRES   REMARKS
ANTIGO         MOCLDY    51  50  96 SE3       29.81R
SHAWANO        PTCLDY    53  51  92 CALM      29.79S
OCONTO           N/A     46  45  99 CALM      29.79S VSB 3/4
STURGEON BAY   FOG       49  49 100 CALM      29.80R VSB 1
GREEN BAY      CLEAR     51  51 100 CALM      29.78F
MANITOWOC      NOT AVBL
APPLETON       PTCLDY    54  48  82 CALM      29.78R
CLINTONVILLE   CLEAR     54  50  87 CALM      29.79R
OSHKOSH        CLEAR     54  51  90 CALM      29.79R
$$

WIZ032>034-041-042-053>061-260800-
SOUTHWEST WISCONSIN

CITY           SKY/WX    TMP DP  RH WIND       PRES   REMARKS
LA CROSSE      CLOUDY    61  58  90 E5        29.75F
SPARTA         LGT RAIN  54  54 100 CALM      29.79R
VIROQUA        CLOUDY    59  55  85 MISG      29.78F
BOSCOBEL       CLOUDY    56  54  93 E3        29.77F FOG
PRAIRIE DU CHI CLOUDY    58  53  84 CALM      29.76F
PLATTEVILLE    CLOUDY    60  56  87 S5        29.79S
$$

WIZ056-057-062-063-064-067-068-260800-
SOUTH CENTRAL WISCONSIN

CITY           SKY/WX    TMP DP  RH WIND       PRES   REMARKS
REEDSBURG      CLOUDY    55  55 100 CALM      29.79R
BARABOO/DELLS  LGT RAIN  56  52  87 SW5       29.79R
LONE ROCK      NOT AVBL
MINERAL POINT  CLOUDY    61  55  82 CALM      29.80R
MADISON        CLOUDY    58  52  80 SE5       29.79R
MIDDLETON      CLOUDY    55  55 100 CALM      29.80R
WATERTOWN      CLEAR     51  51 100 CALM      29.78S
MONROE         CLOUDY    59  54  82 SW5       29.79R
JANESVILLE     CLOUDY    55  54  94 CALM      29.78R
$$

WIZ051-052-058>065-066-070>072-260800-
SOUTHEAST WISCONSIN

CITY           SKY/WX    TMP DP  RH WIND       PRES   REMARKS
MILWAUKEE      PTCLDY    53  51  93 CALM      29.79R
WAUKESHA       CLOUDY    48  48 100 CALM      29.80R FOG
MILWAUKEE/TIMM   N/A     50  46  87 CALM      29.79S
RACINE         CLEAR     52  49  89 NW3       29.80R
KENOSHA        CLEAR     50  48  93 CALM      29.79R
FOND DU LAC    CLEAR     52  49  89 CALM      29.80R
SHEBOYGAN      CLEAR     49  49 100 CALM      29.78S FOG
WEST BEND      CLEAR     46  46 100 CALM      29.79R FOG
JUNEAU         PTCLDY    53  52  97 CALM      29.80R FOG
$$

LSZ147-162-260800-
LAKE SUPERIOR

STATION/POSITION TIME  TEMP    WIND        PRES    WAVE
                       AIR SEA DIR/SP/G            HT/PER
                 (UTC) (F)     (DEG/KT/KT) (MB)    (FT/S)
W MID LAKE BUOY  0550   42 37  100/  8/ 10 1007.7R   1
DEVILS ISLAND    0600   43      10/  8/  8 1007.1F
PORT WING        0630   45     180/  2/  3 1007.5R
SAXON HARBOR     0630   46     160/  2/  3 1006.8R
$$

LMZ867-665-643>646-260800-
LAKE MICHIGAN

STATION/POSITION TIME  TEMP    WIND        PRES    WAVE
                       AIR SEA DIR/SP/G            HT/PER
                 (UTC) (F)     (DEG/KT/KT) (MB)    (FT/S)
CHAMBERS ISLAND  0640   48      CALM  /  3 1008.5R
N MID LAKE BUOY  0550   43 41  350/  4/  6 1008.9S   0
NORTHPORT PIER   0640   51     300/  4/  6 1008.5S
KEWAUNEE LAKESHO 0630   51     280/  3/  4 1008.3R
SHEBOYGAN LAKESH 0600   53     350/  8/  9 1008.5R
PORT WASHINGTON  0640   55     330/  2/  4 1009.5S
ATWATER BUOY     0509   52     340/  2/  4 1008.6R
MILWAUKEE LAKESH 0630   53     350/  1/  3   N/A
S MID LAKE BUOY  0550   48 45  350/ 10/ 12 1008.1R   2/ 5
KENOSHA   LAKESH 0600   56      CALM  /  1 1008.5
$$

TC  - TEMPERATURE IN CELSIUS
VSB - VISIBILITY IN STATUTE MILES
WCI - WIND CHILL INDEX
HX  - HEAT INDEX





USA.gov is the U.S. government's official web portal to all federal, state and local government web resources and services.